Вернуться в каталог

COSMOS 1217 DEB

LostHEO
NORAD 26919·DEBRIS·🇷🇺 Russia

Запущен Oct 24, 1980 с Plesetsk Cosmodrome

Loading…

Ближайшие Пролёты (ближайшие 24 часа)

TLE

УстаревшееSource: Space-Track

Эпоха: Apr 13, 2023, 20:45 UTC

1 26919U 80085H   23103.86471375  .00000397  00000-0  00000+0 0  9996
2 26919  72.6846 288.1195 5203504 248.7902  49.4824  2.04877991191130

Отслеживайте COSMOS 1217 DEB в реальном времени с AllMySat

Download on the App Store